ITY53 LEMH-LIML

Flight info

Callsign ITY53
Flight time N/A
Altitude 36000
Route ISTER UN851 LUNOR DCT NIVDA DCT PAFFO DCT CALNO DCT TORTU DCT GEN
Aircraft A320/M-SDE3FGHIRWY/LB1

Departure

Time 2026-04-11 11:48
Airport Menorca Airport (LEMH)

Arrival

Time N/A
Airport Milano Linate Airport (LIML)
Time Latitude Longitude Altitude Speed Heading
2026-04-11 10:01 39.86424 4.22403 302 ft 0 kts 99°
2026-04-11 11:29 39.86424 4.22402 301 ft 0 kts 99°
2026-04-11 11:34 39.86427 4.22376 302 ft 5 kts 98°
2026-04-11 11:34 39.86430 4.22337 301 ft 3 kts 88°
2026-04-11 11:35 39.86429 4.22320 301 ft 2 kts 52°
2026-04-11 11:35 39.86421 4.22310 300 ft 2 kts 18°
2026-04-11 11:35 39.86411 4.22306 304 ft 2 kts 12°
2026-04-11 11:35 39.86405 4.22304 301 ft 0 kts 11°
2026-04-11 11:40 39.86435 4.22312 298 ft 11 kts 11°
2026-04-11 11:41 39.86507 4.22327 302 ft 10 kts
2026-04-11 11:41 39.86567 4.22338 305 ft 8 kts
2026-04-11 11:41 39.86633 4.22350 304 ft 13 kts
2026-04-11 11:41 39.86747 4.22374 304 ft 20 kts
2026-04-11 11:42 39.86890 4.22388 307 ft 18 kts 326°
2026-04-11 11:42 39.86942 4.22256 308 ft 15 kts 313°
2026-04-11 11:42 39.87029 4.22245 307 ft 12 kts 11°
2026-04-11 11:42 39.87105 4.22265 307 ft 10 kts 11°
2026-04-11 11:43 39.87168 4.22281 308 ft 8 kts 11°
2026-04-11 11:43 39.87228 4.22297 309 ft 10 kts 11°
2026-04-11 11:43 39.87277 4.22309 309 ft 0 kts 11°
2026-04-11 11:44 39.87349 4.22326 310 ft 19 kts
2026-04-11 11:44 39.87390 4.22270 308 ft 6 kts 279°
2026-04-11 11:44 39.87394 4.22236 310 ft 0 kts 277°
2026-04-11 11:46 39.87395 4.22185 310 ft 13 kts 254°
2026-04-11 11:46 39.87343 4.22097 310 ft 11 kts 215°
2026-04-11 11:47 39.87266 4.22073 310 ft 12 kts 188°
2026-04-11 11:47 39.87249 4.22070 310 ft 0 kts 188°
2026-04-11 11:47 39.87241 4.22068 310 ft 7 kts 188°
2026-04-11 11:47 39.86929 4.22015 307 ft 84 kts 188°
2026-04-11 11:48 39.86132 4.21849 299 ft 144 kts 187°
2026-04-11 11:48 39.85080 4.21630 747 ft 156 kts 188°
2026-04-11 11:48 39.84017 4.21349 1478 ft 155 kts 186°
2026-04-11 11:48 39.83137 4.21160 1989 ft 170 kts 186°
2026-04-11 11:49 39.81912 4.20908 2461 ft 190 kts 186°
2026-04-11 11:49 39.80503 4.20623 2783 ft 214 kts 186°
2026-04-11 11:49 39.78966 4.20310 3220 ft 234 kts 186°
2026-04-11 11:49 39.77345 4.19969 3910 ft 242 kts 191°
2026-04-11 11:50 39.75834 4.18992 4651 ft 250 kts 226°
2026-04-11 11:50 39.75050 4.16992 5408 ft 254 kts 263°
2026-04-11 11:50 39.75291 4.14723 5859 ft 260 kts 296°
2026-04-11 11:50 39.76524 4.12938 5956 ft 273 kts 330°
2026-04-11 11:51 39.78348 4.12341 5983 ft 275 kts
2026-04-11 11:51 39.80201 4.12972 5982 ft 277 kts 22°
2026-04-11 11:51 39.81933 4.14079 5978 ft 278 kts 29°
2026-04-11 11:51 39.83613 4.15425 6524 ft 286 kts 33°
2026-04-11 11:52 39.85221 4.16919 7566 ft 284 kts 37°
2026-04-11 11:52 39.86196 4.17934 8264 ft 284 kts 39°
2026-04-11 11:52 39.87692 4.19637 9176 ft 288 kts 42°
2026-04-11 11:52 39.89039 4.21583 10071 ft 293 kts 57°
2026-04-11 11:53 39.89823 4.24097 10572 ft 314 kts 80°
2026-04-11 11:53 39.89730 4.27030 10905 ft 338 kts 99°
2026-04-11 11:53 39.89323 4.30159 11160 ft 362 kts 96°
2026-04-11 11:53 39.89247 4.33502 11617 ft 375 kts 85°
2026-04-11 11:54 39.89702 4.36829 12254 ft 382 kts 73°
2026-04-11 11:54 39.90706 4.40039 12929 ft 386 kts 60°
2026-04-11 11:54 39.92222 4.42947 13618 ft 390 kts 51°
2026-04-11 11:54 39.93919 4.45732 14256 ft 395 kts 51°
2026-04-11 11:55 39.95632 4.48557 14888 ft 399 kts 51°
2026-04-11 11:55 39.97357 4.51426 15516 ft 404 kts 51°
2026-04-11 11:55 39.99094 4.54326 16130 ft 408 kts 51°
2026-04-11 11:55 40.00848 4.57266 16731 ft 413 kts 51°
2026-04-11 11:56 40.02620 4.60238 17337 ft 418 kts 51°
2026-04-11 11:56 40.04416 4.63248 17941 ft 423 kts 51°
2026-04-11 11:56 40.06218 4.66311 18503 ft 427 kts 54°
2026-04-11 11:56 40.07780 4.69629 19025 ft 431 kts 60°
2026-04-11 11:57 40.09291 4.73040 19557 ft 434 kts 60°
2026-04-11 11:57 40.10809 4.76464 20073 ft 438 kts 60°
2026-04-11 11:57 40.12336 4.79920 20584 ft 441 kts 60°
2026-04-11 11:57 40.13873 4.83407 21078 ft 444 kts 60°
2026-04-11 11:58 40.15422 4.86916 21560 ft 447 kts 60°
2026-04-11 11:58 40.16982 4.90448 22021 ft 451 kts 60°
2026-04-11 11:58 40.18553 4.94012 22473 ft 454 kts 60°
2026-04-11 11:58 40.20132 4.97602 22908 ft 457 kts 60°
2026-04-11 11:59 40.21720 5.01213 23332 ft 460 kts 60°
2026-04-11 11:59 40.23321 5.04859 23715 ft 463 kts 60°
2026-04-11 11:59 40.24928 5.08525 24063 ft 466 kts 60°
2026-04-11 11:59 40.26544 5.12214 24402 ft 468 kts 60°
2026-04-11 12:00 40.28167 5.15923 24740 ft 471 kts 60°
2026-04-11 12:00 40.29780 5.19616 25071 ft 473 kts 60°
2026-04-11 12:00 40.31415 5.23364 25393 ft 476 kts 61°
2026-04-11 12:00 40.33059 5.27141 25710 ft 478 kts 61°
2026-04-11 12:01 40.34710 5.30933 26017 ft 480 kts 61°
2026-04-11 12:01 40.36371 5.34746 26333 ft 482 kts 61°
2026-04-11 12:01 40.38117 5.38513 26604 ft 485 kts 56°
2026-04-11 12:01 40.40232 5.41977 26869 ft 488 kts 47°
2026-04-11 12:02 40.42611 5.45172 27129 ft 490 kts 45°
2026-04-11 12:02 40.45005 5.48371 27385 ft 493 kts 45°
2026-04-11 12:02 40.47409 5.51593 27624 ft 495 kts 45°
2026-04-11 12:02 40.49821 5.54834 27857 ft 497 kts 46°
2026-04-11 12:03 40.52238 5.58090 28078 ft 499 kts 46°
2026-04-11 12:03 40.54668 5.61370 28276 ft 501 kts 46°
2026-04-11 12:03 40.57097 5.64655 28527 ft 501 kts 46°
2026-04-11 12:03 40.59523 5.67936 28820 ft 501 kts 46°
2026-04-11 12:04 40.61952 5.71223 29095 ft 501 kts 46°
2026-04-11 12:04 40.64380 5.74505 29382 ft 501 kts 46°
2026-04-11 12:04 40.66810 5.77799 29680 ft 500 kts 46°
2026-04-11 12:04 40.69230 5.81081 29991 ft 500 kts 46°
2026-04-11 12:05 40.71650 5.84368 30262 ft 499 kts 46°
2026-04-11 12:05 40.74068 5.87655 30513 ft 499 kts 46°
2026-04-11 12:05 40.76484 5.90945 30760 ft 499 kts 46°
2026-04-11 12:05 40.78901 5.94236 31005 ft 499 kts 46°
2026-04-11 12:06 40.81318 5.97531 31244 ft 500 kts 46°
2026-04-11 12:06 40.83734 6.00832 31479 ft 500 kts 46°
2026-04-11 12:06 40.86152 6.04134 31713 ft 501 kts 46°
2026-04-11 12:06 40.88574 6.07446 31950 ft 501 kts 46°
2026-04-11 12:07 40.90996 6.10763 32185 ft 502 kts 46°
2026-04-11 12:07 40.93417 6.14086 32427 ft 502 kts 46°
2026-04-11 12:07 40.95830 6.17407 32665 ft 503 kts 46°
2026-04-11 12:07 40.98262 6.20761 32923 ft 503 kts 46°
2026-04-11 12:08 41.00688 6.24103 33144 ft 504 kts 46°
2026-04-11 12:08 41.03115 6.27444 33383 ft 504 kts 46°
2026-04-11 12:08 41.05547 6.30789 33628 ft 504 kts 46°
2026-04-11 12:08 41.07981 6.34144 33863 ft 505 kts 46°
2026-04-11 12:09 41.10413 6.37502 34104 ft 505 kts 46°
2026-04-11 12:09 41.12843 6.40864 34340 ft 505 kts 46°
2026-04-11 12:09 41.15270 6.44228 34589 ft 504 kts 47°
2026-04-11 12:09 41.17691 6.47590 34847 ft 503 kts 47°
2026-04-11 12:10 41.20074 6.50907 35108 ft 502 kts 47°
2026-04-11 12:10 41.22471 6.54251 35365 ft 500 kts 47°
2026-04-11 12:10 41.24879 6.57593 35610 ft 499 kts 46°
2026-04-11 12:10 41.27353 6.60819 35850 ft 498 kts 43°
2026-04-11 12:11 41.29909 6.63934 35988 ft 498 kts 41°
2026-04-11 12:11 41.32507 6.66969 36015 ft 497 kts 41°
2026-04-11 12:11 41.37731 6.73001 36011 ft 497 kts 41°
2026-04-11 12:12 41.42050 6.78134 36014 ft 496 kts 42°
2026-04-11 12:12 41.47144 6.84351 36012 ft 496 kts 43°
2026-04-11 12:13 41.52227 6.90576 36016 ft 496 kts 42°
2026-04-11 12:13 41.57290 6.96744 36018 ft 496 kts 42°
2026-04-11 12:14 41.62380 7.02944 35944 ft 494 kts 42°
2026-04-11 12:14 41.67471 7.09176 36012 ft 500 kts 42°
2026-04-11 12:15 41.72630 7.15504 35879 ft 505 kts 42°
2026-04-11 12:15 41.75210 7.18672 35107 ft 503 kts 42°
2026-04-11 12:15 41.77789 7.21841 34222 ft 504 kts 41°
2026-04-11 12:16 41.80379 7.25024 33210 ft 505 kts 41°
2026-04-11 12:16 41.82973 7.28219 32169 ft 507 kts 41°
2026-04-11 12:16 41.85574 7.31429 31123 ft 508 kts 41°
2026-04-11 12:16 41.88175 7.34641 30074 ft 509 kts 41°
2026-04-11 12:17 41.90777 7.37856 28845 ft 509 kts 41°
2026-04-11 12:17 41.93386 7.41086 27612 ft 508 kts 41°
2026-04-11 12:17 41.95947 7.44262 26389 ft 507 kts 41°
2026-04-11 12:17 41.98532 7.47475 25160 ft 505 kts 41°
2026-04-11 12:18 42.01097 7.50661 24165 ft 499 kts 41°
2026-04-11 12:18 42.03627 7.53807 23244 ft 492 kts 41°
2026-04-11 12:18 42.08565 7.59969 21431 ft 477 kts 41°
2026-04-11 12:19 42.11014 7.62940 20603 ft 471 kts 39°
2026-04-11 12:19 42.13533 7.65743 20187 ft 468 kts 37°
2026-04-11 12:19 42.16104 7.68426 19992 ft 466 kts 35°
2026-04-11 12:19 42.18690 7.71045 20024 ft 466 kts 35°
2026-04-11 12:20 42.21285 7.73669 20026 ft 466 kts 35°
2026-04-11 12:20 42.23867 7.76315 20026 ft 466 kts 36°
2026-04-11 12:20 42.26432 7.78993 20027 ft 466 kts 36°
2026-04-11 12:20 42.28983 7.81694 20027 ft 466 kts 36°
2026-04-11 12:21 42.31529 7.84412 20029 ft 466 kts 37°
2026-04-11 12:21 42.34066 7.87134 20029 ft 466 kts 37°
2026-04-11 12:21 42.36608 7.89860 20028 ft 466 kts 36°
2026-04-11 12:21 42.39148 7.92576 20030 ft 466 kts 36°
2026-04-11 12:22 42.41693 7.95291 20030 ft 466 kts 36°
2026-04-11 12:22 42.44244 7.98009 20033 ft 466 kts 36°
2026-04-11 12:22 42.46793 8.00725 20034 ft 466 kts 36°
2026-04-11 12:22 42.49335 8.03442 20034 ft 466 kts 36°
2026-04-11 12:23 42.51875 8.06161 20033 ft 466 kts 36°
2026-04-11 12:23 42.54386 8.08852 20036 ft 466 kts 36°
2026-04-11 12:23 42.56929 8.11584 20037 ft 466 kts 36°
2026-04-11 12:23 42.59470 8.14318 20034 ft 466 kts 36°
2026-04-11 12:24 42.62007 8.17051 20035 ft 466 kts 36°
2026-04-11 12:24 42.64552 8.19793 20037 ft 466 kts 36°
2026-04-11 12:24 42.67092 8.22532 20038 ft 466 kts 36°
2026-04-11 12:24 42.69628 8.25268 20038 ft 466 kts 36°
2026-04-11 12:25 42.72165 8.28011 20040 ft 465 kts 36°
2026-04-11 12:25 42.74696 8.30751 20040 ft 465 kts 36°
2026-04-11 12:25 42.77197 8.33463 20033 ft 465 kts 36°
2026-04-11 12:25 42.79727 8.36205 20037 ft 465 kts 36°
2026-04-11 12:26 42.82283 8.38909 20039 ft 465 kts 35°
2026-04-11 12:26 42.84883 8.41541 20039 ft 464 kts 34°
2026-04-11 12:26 42.87496 8.44112 20042 ft 464 kts 33°
2026-04-11 12:26 42.90124 8.46673 20042 ft 464 kts 33°
2026-04-11 12:27 42.92751 8.49240 20041 ft 464 kts 33°
2026-04-11 12:27 42.95366 8.51824 20045 ft 464 kts 34°
2026-04-11 12:27 42.97973 8.54432 20049 ft 464 kts 34°
2026-04-11 12:27 43.00571 8.57050 20052 ft 464 kts 34°